{"data":{"norad_id":61896,"epoch":"2026-09-22T23:13:37.029216Z","epoch_age_seconds":89039,"freshness":"FRESH","line1":"1 61896U 24205C   26265.96778969  .00004219  00000+0  23167-3 0  9992","line2":"2 61896  97.4042 334.0254 0049957  25.8668 334.5045 15.13581928103010","mean_motion":15.13581928,"eccentricity":0.0049957,"inclination_deg":97.4042,"raan_deg":334.0254,"arg_perigee_deg":25.8668,"mean_anomaly_deg":334.5045,"bstar":0.00023167,"rev_number":10301,"period_min":95.138556649046,"perigee_km":490.79963057343,"apogee_km":559.77450178826,"semimajor_km":6903.4240661808,"source":"CELESTRAK","updated_at":"2026-09-23T09:00:21.095546Z"}}